Theta_e
338 335 337 336 336 336 333 329 323 321 316 313 311 309 309 308 310 310 311 311 312 313 313 312 312 311 310 310 311 310 311 311 311 310 311 311 311 311 311 311 312 312 312 312 313 315 320 324 324 321 319 319 323 329 334 333 333 333 333 334 334 332
338 338 337 336 337 336 334 329 323 318 315 314 310 308 309 309 310 312 313 315 320 324 325 324 321 317 314 313 312 311 311 311 311 311 311 312 312 313 313 313 313 313 313 317 321 325 329 332 332 331 328 328 331 334 334 334 334 333 333 334 334 332
339 340 338 337 338 337 334 330 327 323 316 312 310 311 313 315 315 317 320 324 328 330 333 335 332 329 326 322 319 317 315 313 313 313 314 316 317 318 320 320 318 318 322 328 332 332 333 334 333 334 333 333 334 335 335 335 334 333 334 333 333 331
340 338 338 339 338 337 335 332 333 330 321 311 315 324 325 326 325 325 328 328 329 330 333 336 334 334 334 332 330 327 325 323 322 323 325 327 328 330 330 330 329 329 332 334 335 335 335 335 335 335 336 336 336 336 336 335 334 335 334 332 332 331
339 337 338 339 337 338 336 335 335 333 329 321 326 333 332 331 329 327 329 328 330 330 332 336 335 336 336 335 335 334 333 332 331 332 334 335 335 335 335 335 336 336 336 337 337 338 337 336 337 337 337 337 336 337 336 334 334 335 333 332 332 331
338 337 338 337 337 337 335 336 335 333 333 330 332 335 334 331 325 325 328 328 330 330 332 337 336 335 336 335 335 335 334 335 334 334 335 335 334 335 336 336 338 337 337 338 339 338 338 337 337 336 337 337 336 337 336 335 335 335 332 332 332 330
336 335 335 336 337 336 335 336 335 333 333 334 333 334 335 331 325 327 329 328 330 331 334 338 337 335 336 338 337 336 335 336 336 335 336 336 335 337 337 338 338 337 337 338 338 337 337 336 335 336 336 336 336 336 336 335 334 334 332 330 330 328
337 335 333 335 336 336 335 335 334 333 333 333 333 334 335 331 326 329 330 330 329 332 337 338 340 339 339 340 340 338 337 338 338 338 338 337 338 338 338 339 338 337 337 337 337 336 336 336 336 336 336 336 336 336 335 335 334 334 331 329 328 328
338 334 332 334 336 336 335 336 334 333 334 331 332 335 334 328 326 329 330 330 330 333 338 339 341 340 340 340 340 339 338 339 339 338 339 338 338 338 338 338 337 337 337 337 337 336 336 336 336 335 336 336 335 335 334 334 333 333 331 329 328 328
336 332 332 333 335 336 335 336 334 333 333 330 334 335 330 327 328 331 331 330 331 332 337 340 341 340 340 340 340 338 337 339 338 337 338 339 338 337 338 337 336 336 336 337 337 335 336 336 336 335 335 335 335 334 333 332 332 332 331 329 327 327
334 331 332 332 334 336 335 335 334 334 332 331 334 333 330 330 330 333 333 330 331 332 336 339 339 339 340 340 339 338 338 339 338 338 339 339 337 335 336 334 333 334 334 336 336 335 335 335 336 335 334 333 333 332 332 331 331 331 331 330 328 327
333 330 332 333 335 337 334 334 334 334 334 333 333 332 333 332 331 334 332 329 331 333 336 335 334 336 338 339 339 338 338 338 337 338 338 337 334 331 331 331 331 333 333 334 335 334 335 335 334 334 333 332 332 331 331 330 330 330 329 329 327 326
331 329 331 334 336 336 335 335 334 335 335 331 329 333 334 332 332 332 330 330 332 334 335 334 333 334 336 339 337 337 337 336 337 337 335 333 332 330 330 332 332 333 334 334 334 333 334 333 332 332 331 331 330 329 329 328 328 328 327 327 326 325
330 328 329 332 336 336 336 336 335 335 333 329 331 334 333 331 331 330 331 330 330 333 334 334 334 333 336 338 335 335 337 336 336 336 333 333 333 332 332 334 334 334 334 332 332 332 332 332 331 330 329 329 328 327 327 327 326 327 327 327 326 325
328 329 330 335 337 337 338 337 336 336 334 333 334 333 332 332 330 329 331 331 331 334 335 334 334 333 336 337 334 335 337 337 335 335 335 333 334 334 334 334 334 334 333 331 331 331 331 331 330 329 328 327 326 326 325 325 325 325 326 327 326 323
327 329 332 337 339 338 339 338 336 337 338 337 336 333 333 332 330 330 331 332 333 335 335 334 334 334 334 335 335 336 337 336 334 335 334 333 334 334 334 334 332 333 332 331 330 331 330 330 328 327 327 326 325 324 324 323 324 324 324 324 322 322
326 331 336 338 339 339 339 339 338 338 339 338 336 334 332 329 330 332 332 334 335 335 336 335 334 335 333 334 336 337 336 334 333 335 333 333 334 333 333 334 333 332 332 331 329 330 330 327 326 326 325 326 325 324 323 323 324 324 322 320 320 318
328 333 338 339 339 339 339 339 339 338 339 337 334 332 331 330 331 332 333 335 335 335 335 334 335 335 333 334 336 336 335 333 333 334 334 333 333 333 333 333 332 332 330 330 330 330 329 326 324 324 325 326 325 324 324 325 325 323 319 318 316 311
331 336 339 339 339 339 339 340 339 338 338 335 332 332 332 333 333 332 333 335 335 335 334 334 335 334 334 336 336 335 333 332 333 333 333 333 332 333 333 331 332 332 328 326 329 329 327 324 322 322 324 324 324 324 324 325 324 322 319 315 309 305
334 338 339 338 339 339 339 340 339 338 336 333 333 334 334 334 334 334 335 336 335 334 334 334 335 335 335 335 335 334 333 332 333 333 333 333 333 333 332 331 331 330 326 323 328 329 325 322 320 322 323 323 324 324 324 324 322 318 314 307 303 302
336 339 339 339 339 339 339 338 338 337 335 333 334 334 334 334 335 335 335 335 335 334 334 335 335 335 335 334 333 333 332 332 333 333 332 332 333 330 330 330 327 326 326 325 328 328 323 321 321 322 322 322 323 323 323 322 316 311 308 304 301 301
338 339 340 340 339 339 338 337 336 337 335 334 334 333 331 333 335 335 334 334 335 335 335 335 334 334 333 333 332 332 332 332 332 331 330 329 329 328 328 328 324 323 324 326 328 327 322 322 324 324 322 322 322 322 322 318 309 306 306 305 305 304
339 340 340 338 338 337 337 336 335 336 336 335 333 331 330 332 334 334 333 334 334 334 334 334 332 331 331 331 331 332 332 330 330 330 329 329 328 326 325 324 325 325 320 318 322 324 324 325 327 326 325 324 324 321 318 312 304 302 302 303 306 306
340 339 339 338 337 337 336 336 335 335 335 334 331 330 331 333 333 333 333 333 333 333 334 331 329 329 330 330 330 331 331 330 329 329 329 329 325 320 319 318 322 323 319 317 316 317 320 323 326 328 327 327 327 324 319 312 305 303 303 304 305 305
340 339 339 337 336 336 336 336 334 334 333 332 330 330 332 334 333 333 333 333 332 332 331 329 328 329 330 330 329 329 329 329 329 328 328 325 318 314 314 314 313 314 319 322 316 310 310 314 322 326 327 327 326 326 322 314 308 305 305 306 305 303
339 339 338 336 336 335 335 335 334 333 332 331 332 332 333 333 333 333 333 333 332 330 330 329 329 329 328 328 327 326 327 327 328 327 324 318 312 312 311 311 310 308 312 315 311 306 303 306 313 318 324 325 323 324 319 312 311 308 304 305 305 304
337 337 336 336 336 335 333 333 333 332 332 332 333 333 334 333 333 333 332 332 330 329 329 329 328 328 326 326 326 325 326 326 326 322 317 313 311 311 310 308 308 306 305 305 306 305 302 303 306 307 313 315 312 316 315 312 315 312 307 306 305 304
336 336 336 336 336 334 333 333 334 333 332 333 333 333 333 333 333 332 331 330 329 329 329 328 328 327 325 325 325 325 326 324 320 316 313 312 310 309 308 306 304 303 302 302 304 306 303 303 304 301 303 304 302 306 308 310 315 313 312 310 306 305
337 337 336 337 335 333 332 333 334 334 333 333 334 333 332 331 332 331 330 329 329 329 328 327 328 327 325 324 324 325 323 319 315 313 311 310 309 307 305 303 302 302 302 302 302 303 302 302 302 301 300 301 301 301 303 306 310 310 311 311 309 308
336 336 336 336 334 332 333 333 334 334 334 334 334 333 332 331 331 330 329 329 328 328 328 328 328 327 325 324 324 322 318 314 312 311 310 308 306 303 302 302 302 301 301 302 301 301 301 301 301 301 301 306 309 307 307 308 308 309 309 309 308 308
336 337 337 336 334 334 335 334 333 333 333 334 334 333 332 331 331 330 329 328 328 327 328 329 327 326 325 324 321 317 314 312 310 309 308 305 303 301 301 301 301 301 301 301 301 301 301 301 301 301 301 306 310 310 309 309 309 311 310 309 307 306
336 336 337 336 335 336 336 334 332 332 333 333 333 333 332 331 331 329 329 328 327 327 327 327 326 325 324 321 317 314 311 310 308 307 305 303 302 301 301 301 301 301 301 300 300 300 300 300 300 300 300 301 303 303 304 305 306 308 309 310 308 305
334 335 337 337 336 336 335 334 333 332 333 333 333 334 332 331 330 329 329 328 327 326 325 325 324 323 323 318 314 311 310 308 307 305 303 301 301 301 301 301 301 300 300 300 300 300 300 300 299 299 299 299 299 299 299 300 300 303 306 309 310 308
334 335 337 337 336 335 335 334 333 333 333 333 333 333 332 331 330 329 328 327 326 325 324 324 322 322 321 315 312 310 309 307 305 302 301 301 301 300 300 300 300 300 300 300 300 300 299 299 299 299 299 299 299 298 298 298 298 299 302 305 307 309
336 335 336 336 336 334 334 334 334 334 334 333 333 332 331 330 329 328 328 327 326 325 324 323 322 321 319 315 312 309 307 305 302 301 300 300 300 300 300 300 300 300 300 300 299 299 299 299 299 299 299 299 298 298 298 298 298 298 298 299 302 306
337 336 336 336 336 335 334 335 335 335 334 333 333 332 331 330 329 328 327 327 326 325 324 323 321 320 318 313 309 307 305 303 301 300 300 300 300 300 299 299 299 299 300 299 299 299 299 299 299 298 298 298 298 298 298 298 298 298 297 297 297 300
337 337 336 336 336 335 335 335 334 334 334 333 332 331 331 329 328 327 327 327 325 324 323 321 319 318 315 310 307 305 303 301 300 300 299 299 299 299 299 299 299 299 299 299 299 299 298 298 298 298 298 298 298 298 298 298 297 297 297 297 297 297
Wind_Speed
13 12 11 10 9 9 7 7 9 9 8 8 8 8 8 8 8 8 9 9 8 9 8 7 6 5 4 4 4 3 3 3 3 3 3 3 2 2 2 2 2 2 3 3 4 4 5 8 9 9 8 7 6 5 6 5 4 5 5 4 6 10
15 14 12 11 10 10 8 7 9 9 9 8 9 9 9 9 9 9 9 8 6 7 5 4 4 4 4 3 4 3 3 3 3 3 3 3 2 1 1 1 2 2 3 4 5 5 6 9 9 8 8 7 6 6 6 4 4 5 4 4 7 9
15 14 13 12 10 9 7 7 7 8 9 10 10 9 9 9 8 7 7 5 5 5 3 1 2 2 3 4 4 4 4 4 4 4 4 4 4 3 2 2 2 2 3 5 7 7 6 8 9 9 8 8 8 7 5 3 4 6 4 6 7 8
15 15 13 12 9 8 8 8 8 7 8 10 10 8 8 8 6 6 5 4 4 4 3 2 1 1 2 3 4 5 5 6 6 6 5 5 5 4 3 3 4 3 4 5 6 5 2 4 7 8 8 7 6 5 5 5 6 6 5 7 7 7
14 14 13 12 9 10 11 10 11 9 8 9 10 8 8 8 7 6 6 5 4 4 3 3 3 2 2 2 3 4 4 5 6 5 4 3 3 3 2 3 4 4 4 4 2 1 0 1 2 4 5 5 4 5 6 7 6 6 7 7 7 8
14 15 14 12 10 11 13 11 11 11 10 10 11 10 9 8 8 7 6 5 4 4 3 4 3 2 2 2 2 2 3 4 4 5 4 2 3 2 3 3 3 3 3 2 0 1 1 1 1 2 2 3 4 4 6 7 5 5 7 7 7 9
14 15 14 13 11 11 11 11 10 12 11 10 11 11 9 9 9 7 6 5 4 4 4 4 3 3 2 3 4 3 4 3 3 4 3 2 3 3 3 3 1 1 2 1 1 2 2 2 2 2 2 3 4 4 5 6 6 4 6 8 8 9
14 15 15 13 12 10 11 11 11 13 12 11 10 10 9 9 8 7 5 5 5 5 4 4 3 3 3 4 4 4 3 2 2 3 2 1 2 2 3 2 1 2 2 1 2 2 2 3 3 3 3 3 4 4 5 6 6 6 7 9 9 8
14 15 15 14 13 11 13 12 11 13 13 11 10 10 10 9 7 7 6 6 5 5 4 4 4 4 4 4 4 5 4 2 2 3 2 0 2 3 3 2 2 3 2 2 2 2 2 2 3 3 3 3 4 5 6 6 6 7 7 8 9 8
14 16 15 14 13 13 14 13 11 12 13 11 11 11 10 9 8 7 6 6 6 6 4 4 5 4 4 4 5 5 5 3 2 2 2 1 2 2 2 1 2 3 3 2 2 2 2 2 4 4 4 4 5 6 6 6 5 6 7 7 7 8
15 17 15 14 14 15 15 13 11 12 12 11 12 11 9 9 9 7 6 7 6 6 5 6 6 6 5 5 6 5 5 4 3 2 2 1 1 1 1 1 1 2 3 3 2 3 3 3 4 4 5 5 5 6 5 6 6 6 6 7 8 8
17 18 16 15 15 15 14 13 13 12 12 12 12 10 9 10 9 7 7 7 7 7 7 8 8 8 7 7 7 6 6 5 4 3 2 1 0 0 0 0 1 2 3 4 3 3 4 4 5 5 5 6 6 6 5 5 6 6 5 6 7 7
18 18 16 16 15 14 13 14 14 13 12 12 11 10 10 11 9 8 8 8 8 8 8 9 10 10 8 8 9 7 6 5 5 4 2 2 1 1 1 1 2 3 4 4 3 3 4 4 4 4 4 5 5 5 5 5 5 5 4 5 5 4
18 18 16 15 15 14 13 14 13 13 12 10 11 11 11 9 8 8 8 9 9 9 9 9 11 11 10 9 9 7 5 4 5 4 2 2 1 1 1 2 2 4 4 3 3 3 3 3 3 3 4 5 4 3 4 4 5 4 3 4 3 4
17 18 17 15 14 13 12 12 13 13 12 10 11 12 10 8 9 9 8 9 9 9 10 10 11 11 10 8 7 6 5 4 4 4 2 1 1 1 2 3 3 3 3 2 2 2 3 3 3 4 5 5 4 3 4 4 5 3 4 5 4 6
18 19 18 15 14 13 12 12 13 13 11 10 11 10 9 9 10 10 10 9 10 10 10 10 10 10 8 6 5 5 5 4 3 4 2 1 1 1 1 1 2 3 2 2 1 1 3 4 4 5 5 5 4 5 5 4 3 2 4 5 6 7
19 19 17 16 15 15 14 13 13 12 10 10 10 10 10 10 10 10 10 10 10 9 9 9 9 8 7 5 4 4 4 4 3 3 3 2 2 0 0 0 1 1 2 2 1 2 3 5 5 5 5 5 5 5 4 3 1 3 5 6 7 8
20 19 17 17 17 16 15 13 12 12 10 10 10 10 10 10 11 11 11 10 10 9 9 8 7 6 7 5 4 4 4 3 3 2 2 2 2 1 1 2 1 1 1 4 3 4 5 6 5 4 5 5 5 4 3 2 0 2 4 5 6 7
21 19 18 19 18 16 15 13 12 11 10 10 10 10 10 10 10 11 10 10 9 8 8 7 5 5 6 5 3 3 3 3 3 2 2 2 2 2 2 2 2 2 1 7 7 6 7 7 7 6 6 5 4 3 2 1 1 4 5 4 4 5
21 20 21 20 18 17 15 13 11 11 11 11 11 11 11 11 10 10 10 9 7 6 5 5 4 4 4 4 3 2 3 4 3 3 4 3 3 4 4 1 2 1 2 8 9 7 8 8 8 6 4 3 2 2 1 0 3 4 4 3 3 4
22 21 21 19 17 16 14 13 13 12 12 13 12 12 12 12 10 10 10 8 6 6 6 5 3 3 2 2 2 2 4 4 4 5 6 4 4 6 4 1 2 3 4 7 9 8 7 6 4 2 1 2 2 2 1 1 4 4 3 3 4 5
22 22 20 19 19 15 12 13 13 13 13 13 12 12 13 13 11 10 10 9 7 7 6 5 5 4 3 3 4 4 5 5 4 4 4 3 4 3 2 2 2 3 5 8 10 8 5 5 4 1 2 2 2 3 2 1 4 4 4 4 5 6
21 21 19 21 20 14 12 13 13 13 13 13 14 15 16 15 12 11 10 10 9 8 7 7 7 6 4 5 6 5 5 4 3 3 1 2 3 3 3 4 4 4 6 8 11 9 6 5 4 3 3 4 4 3 2 2 3 4 4 6 5 4
21 21 20 21 18 14 14 14 15 16 15 15 16 16 15 13 12 11 11 11 10 9 9 8 8 6 5 5 5 3 3 3 3 2 1 2 3 5 5 6 7 9 6 4 8 11 8 6 5 6 7 5 6 6 6 6 5 5 5 6 5 3
22 21 21 21 17 17 18 17 18 18 16 15 14 14 14 12 12 12 11 11 10 10 10 8 6 5 4 4 4 4 3 2 2 2 2 3 5 7 7 8 10 11 10 7 9 9 8 7 8 10 8 4 5 5 6 9 7 6 4 4 3 3
23 23 22 20 18 19 19 17 18 17 16 14 13 14 15 14 13 12 12 11 10 11 10 8 6 5 5 5 5 5 3 2 2 3 3 6 8 9 9 10 10 11 11 11 9 7 6 6 8 11 10 7 4 3 7 8 6 5 5 4 3 2
25 24 22 20 19 20 19 16 16 15 14 12 13 15 16 15 14 12 12 11 10 11 9 6 6 5 5 6 4 4 4 3 3 5 6 9 10 10 11 10 11 11 11 11 8 6 5 5 7 9 9 8 5 6 9 7 5 5 6 6 3 2
26 24 21 19 19 21 19 16 14 13 13 12 12 15 16 16 14 12 12 12 12 12 8 5 6 6 4 4 3 3 4 5 6 7 9 10 10 11 10 10 10 11 11 12 11 10 8 8 7 7 7 7 7 8 8 8 9 5 4 7 6 3
26 23 21 19 18 20 18 16 15 15 15 13 12 15 16 16 14 13 12 12 11 11 8 6 6 6 4 3 4 5 7 9 10 11 11 11 10 10 10 10 10 11 11 12 12 13 13 12 11 10 9 8 8 8 6 8 10 4 2 5 5 6
26 23 22 21 19 19 17 17 18 18 17 15 15 17 15 15 14 12 12 12 11 10 10 8 6 5 4 4 6 8 9 11 12 12 12 11 11 10 10 10 11 12 12 12 12 13 13 13 13 12 12 9 7 6 6 4 4 3 2 2 2 4
26 22 22 23 21 19 18 19 20 20 19 18 17 17 16 14 14 13 12 12 10 10 11 9 6 5 4 5 8 11 12 13 13 13 12 11 11 11 11 12 12 13 13 13 13 12 12 12 11 11 12 11 9 8 8 6 5 3 2 3 2 2
27 24 22 22 23 21 20 20 21 20 20 18 17 18 17 15 14 13 12 11 9 9 9 8 6 5 5 7 10 13 14 14 14 14 13 12 12 12 13 14 14 14 13 14 14 13 12 12 12 11 10 11 11 11 11 8 8 7 5 3 2 2
30 27 22 22 24 23 22 20 21 21 20 19 18 19 17 15 14 12 11 10 8 8 8 7 6 5 6 9 12 14 15 15 15 14 13 13 14 14 14 14 14 14 13 13 12 12 12 11 12 12 11 12 11 10 10 9 9 10 8 5 3 3
31 29 23 22 24 24 23 21 21 22 22 21 19 19 17 15 14 12 9 9 8 8 7 6 6 6 8 12 14 16 16 16 15 14 14 15 15 15 15 14 14 14 13 12 12 11 11 11 11 11 11 11 10 10 9 9 9 10 10 7 6 4
32 29 24 24 25 25 24 22 21 22 23 21 19 19 16 14 14 11 9 9 9 8 7 7 7 6 9 14 16 17 16 16 15 15 15 15 16 16 15 15 14 13 12 12 11 11 11 10 11 11 11 10 9 9 9 9 9 10 11 10 9 8
30 28 27 26 26 26 24 23 22 22 22 22 22 20 18 15 13 12 11 10 9 8 7 7 7 7 10 16 17 17 17 16 16 16 16 17 16 16 15 14 14 13 12 12 11 11 11 11 10 10 10 9 9 9 9 9 9 10 11 11 11 10
30 29 29 28 26 26 25 23 22 21 22 24 23 20 18 17 14 11 12 12 10 8 7 8 8 8 13 18 18 18 18 17 17 17 18 18 17 16 16 15 14 13 13 12 11 12 11 11 11 10 9 9 9 9 9 9 10 10 11 12 11 11
Wind_Direction
168 175 170 174 177 189 197 204 195 179 185 189 184 173 160 151 139 135 130 131 127 109 98 94 101 111 119 134 142 154 161 174 177 169 172 172 184 197 236 269 289 303 321 330 344 349 3 3 353 349 349 352 351 7 23 7 325 306 334 333 319 337
170 173 171 172 180 194 201 217 204 180 179 181 181 173 162 153 143 143 140 137 126 108 99 76 72 88 99 114 126 145 151 162 172 169 170 162 169 181 238 292 312 330 2 15 21 20 9 359 354 357 360 0 9 20 3 322 304 323 338 321 323 335
170 172 169 170 180 190 194 209 200 176 177 178 178 174 162 151 142 146 143 127 109 109 123 80 31 63 96 111 116 128 134 145 148 146 147 137 135 125 110 83 59 60 66 58 41 26 351 333 337 349 359 5 14 7 337 312 327 335 328 314 322 335
174 173 165 167 174 172 168 173 171 171 182 177 171 173 161 151 148 146 139 123 114 122 155 199 199 164 143 132 127 134 142 144 140 139 137 134 128 107 104 98 76 71 74 57 35 27 322 299 324 338 354 0 357 339 320 323 329 331 329 322 329 344
178 173 166 165 168 164 160 164 167 173 184 172 162 174 172 162 162 153 149 144 147 157 179 203 187 190 187 159 160 156 165 157 147 147 125 129 131 96 101 103 63 37 52 55 25 20 228 260 314 328 344 342 338 339 336 334 326 315 323 340 355 359
181 173 173 169 171 169 163 167 173 175 179 172 166 179 182 168 161 157 160 158 166 175 185 201 198 208 182 188 234 210 189 165 154 160 128 128 150 109 79 81 55 20 49 79 204 58 17 355 10 350 344 339 352 4 353 347 340 318 327 357 7 358
182 177 180 174 176 176 169 174 181 178 178 184 176 178 185 170 163 164 170 170 180 190 195 204 213 220 189 205 240 234 196 166 170 169 136 143 159 132 87 79 95 87 79 96 57 56 34 360 24 25 15 10 13 22 18 4 358 348 342 355 1 356
179 180 184 178 175 177 174 180 188 179 181 196 181 178 187 173 168 174 182 184 191 202 201 202 206 206 198 204 224 232 201 170 192 154 120 152 122 96 96 93 95 91 84 82 50 50 48 15 28 32 25 28 29 37 43 28 2 350 346 353 4 8
177 179 185 181 176 178 177 186 190 175 186 199 178 184 189 171 176 185 191 194 199 212 200 194 202 206 210 207 211 214 189 179 206 131 108 160 84 64 82 86 79 77 62 70 49 41 47 21 36 43 40 39 45 49 52 48 10 347 351 1 13 23
181 180 187 188 181 184 181 187 187 175 193 198 180 192 182 167 190 193 195 199 206 218 205 199 202 202 207 210 209 202 181 173 195 131 92 26 57 68 69 56 84 89 75 71 55 50 51 34 39 39 54 56 56 59 60 65 40 6 360 2 18 33
181 181 188 193 185 189 186 183 184 181 193 192 185 190 171 175 196 193 201 206 214 222 217 215 205 201 202 205 210 196 176 172 175 146 110 38 31 81 76 15 62 105 109 91 63 54 62 67 59 45 54 61 64 62 66 79 71 53 33 19 23 27
181 182 186 191 186 192 191 180 182 187 191 188 184 178 174 191 195 194 209 212 218 225 227 225 214 208 199 199 211 201 185 179 174 164 153 152 147 198 291 315 40 61 74 82 69 49 60 75 79 65 60 65 71 72 71 81 89 95 83 55 46 26
179 182 188 191 187 191 191 180 180 187 190 184 173 172 187 197 195 201 213 215 220 229 234 230 221 212 199 202 209 200 186 173 167 173 173 157 152 265 346 26 47 47 50 69 63 45 60 72 79 79 85 88 87 92 91 85 94 104 90 67 64 28
177 181 188 190 191 194 191 183 180 183 188 180 170 182 195 196 198 205 213 222 226 235 235 225 219 209 197 203 202 185 171 161 160 156 146 135 152 231 64 48 58 64 56 64 56 53 70 75 81 91 107 107 105 108 103 90 87 85 52 31 20 349
179 180 186 188 191 195 190 184 181 183 187 181 182 191 196 193 198 206 217 229 230 232 228 214 211 203 191 194 189 170 156 153 150 134 133 150 164 154 74 50 56 71 65 60 56 80 101 105 98 99 105 108 110 103 98 96 90 66 17 4 353 339
185 183 187 190 190 191 187 183 182 185 185 183 186 188 191 192 197 210 221 229 228 221 215 207 204 196 185 180 175 165 155 157 153 140 154 191 181 149 86 53 51 76 86 78 89 126 119 129 124 119 132 141 137 112 99 104 97 37 353 343 340 338
189 187 187 191 192 192 187 183 184 186 183 182 185 184 191 197 203 215 219 221 219 208 204 202 196 186 175 173 172 161 153 161 161 161 182 202 197 154 64 81 5 70 98 106 175 192 148 143 145 140 159 170 157 137 126 129 97 7 339 337 342 339
190 187 188 193 194 192 186 183 186 186 182 182 185 187 193 199 210 218 216 215 210 201 203 203 198 182 166 168 171 161 164 172 175 177 192 227 227 223 235 190 217 318 139 151 177 210 185 163 158 157 177 181 167 166 169 178 86 355 340 351 352 346
189 187 193 197 194 190 185 185 186 184 182 183 185 189 193 198 210 218 215 213 205 198 204 206 201 175 154 155 157 169 184 182 188 188 195 243 262 273 259 177 174 308 159 144 152 205 201 167 158 162 178 182 175 189 186 196 335 351 350 6 8 7
188 190 199 199 194 188 185 185 184 180 181 184 184 189 194 197 205 211 207 207 201 190 196 205 195 161 148 155 164 198 211 198 195 201 201 206 223 234 238 198 162 202 140 136 142 191 206 182 176 171 176 187 179 206 208 350 9 8 2 16 38 43
187 192 198 194 190 190 189 186 183 182 182 185 188 195 198 196 201 208 207 206 198 182 185 198 190 171 175 187 198 235 236 214 197 208 210 202 214 223 220 213 170 151 146 138 142 182 204 178 162 116 89 215 205 215 235 39 54 54 42 37 36 42
188 192 194 194 194 194 194 188 183 184 184 186 191 199 205 201 201 207 208 206 197 183 184 194 198 197 201 205 212 229 235 215 197 216 227 227 226 226 206 185 159 139 161 157 155 186 200 136 130 39 81 147 201 224 231 123 103 100 84 69 44 34
189 191 196 204 200 190 192 189 185 186 184 189 192 198 205 204 204 207 207 208 207 200 197 203 208 211 215 216 209 217 236 224 211 229 249 253 226 189 177 175 163 173 187 178 170 184 193 161 178 231 181 175 201 178 132 124 115 107 92 86 81 54
189 192 198 205 195 180 188 187 185 188 188 194 196 198 202 203 207 212 211 209 215 216 216 218 220 219 223 223 209 205 248 248 231 228 216 224 194 165 167 167 170 174 167 194 198 192 197 193 192 203 209 223 213 185 158 155 125 96 79 73 82 91
191 196 199 203 191 180 185 184 186 189 192 199 199 198 201 205 212 216 208 202 212 220 221 224 220 217 217 219 219 212 225 247 240 228 200 181 172 165 165 167 177 174 163 184 211 209 209 204 190 192 203 217 206 192 162 160 138 105 100 92 83 69
193 196 199 202 193 186 188 189 193 192 192 199 196 194 202 208 210 210 202 195 209 223 219 214 208 214 222 220 227 221 212 230 227 211 187 174 172 168 169 173 180 183 185 190 196 205 207 200 196 198 206 218 219 135 132 158 156 130 134 120 107 77
199 200 201 200 194 192 194 197 200 197 195 200 198 198 202 204 203 206 203 196 209 221 215 208 208 218 224 220 222 219 206 200 192 188 185 182 178 175 176 180 183 184 187 184 175 176 172 166 187 197 201 211 204 153 152 167 170 163 163 147 140 127
202 205 200 195 193 195 196 195 195 196 197 195 200 207 202 197 200 203 204 202 206 210 207 204 211 214 216 216 212 205 190 174 172 180 187 188 183 181 180 180 183 181 177 173 164 162 157 149 160 169 170 170 160 164 177 182 175 175 169 166 173 178
202 204 199 192 192 197 194 192 190 192 195 186 195 211 202 194 199 198 197 199 198 199 199 201 210 206 193 197 194 183 174 169 175 182 187 188 184 182 179 176 175 169 166 167 163 163 162 155 152 148 146 145 141 143 159 179 179 170 144 172 182 184
204 203 200 193 192 196 191 190 190 192 196 190 199 209 198 191 198 194 188 189 189 195 198 200 206 198 188 190 180 171 172 176 181 186 187 186 183 179 173 170 166 159 156 156 159 163 161 157 155 152 146 137 129 125 122 139 154 141 129 141 140 165
202 197 197 195 194 193 189 189 190 194 200 197 203 204 190 186 192 188 183 183 185 194 197 198 199 194 192 185 176 176 177 180 183 186 186 183 179 175 168 163 156 154 152 149 152 153 150 149 148 151 150 144 146 147 139 128 121 120 109 112 118 136
198 194 192 194 193 193 192 190 190 198 203 201 207 206 193 188 188 184 182 181 184 192 193 193 191 192 192 181 180 183 181 182 185 185 185 181 176 171 166 161 155 152 151 148 148 147 144 143 141 144 144 141 147 148 142 139 136 136 123 113 123 97
195 195 187 187 191 194 194 191 192 197 201 201 205 203 194 188 186 182 179 178 182 189 187 183 184 186 185 181 184 187 185 185 187 184 182 177 172 168 162 160 156 151 149 145 144 143 142 142 140 141 138 136 139 138 135 135 132 131 124 113 120 105
191 193 185 185 191 193 191 191 193 193 197 199 194 189 186 182 180 177 180 180 177 182 182 178 182 180 182 188 191 192 190 187 185 182 179 174 168 165 161 159 154 149 147 144 142 142 141 142 140 137 136 134 132 130 128 126 121 118 117 113 118 125
186 188 185 187 192 193 191 191 191 190 195 192 181 179 181 179 176 174 183 186 176 177 180 177 184 182 187 196 196 193 190 187 183 178 174 172 168 165 160 156 153 150 148 145 145 144 140 140 138 134 133 131 129 129 123 119 116 113 113 111 112 119
181 183 185 188 190 191 191 191 189 190 193 184 175 177 177 176 176 174 183 187 176 175 175 181 188 180 187 196 195 191 188 184 180 175 171 169 166 162 158 154 153 152 151 149 147 145 140 138 136 133 133 132 129 127 120 116 113 110 109 105 107 114
182 182 184 186 189 190 191 191 188 189 188 179 174 177 178 177 176 180 191 191 186 188 185 189 189 178 186 193 192 189 186 181 178 174 171 168 164 160 158 156 156 156 154 152 150 146 143 140 137 136 135 134 131 125 120 115 110 108 108 103 102 102